OK1KZE-6 Weather Reports


time (UTC)temp
C
wind
direction
speed
KPH
gust
KPH
rain 1hr
cm
rain 24hr
cm
rain mn
cm
humidity
%
barometer
mb
20260507080507 12 94 17.7 17.7 0.00 0.00 0.00 80 1012.8
20260507080008 12 94 17.7 17.7 0.00 0.00 0.00 79 1012.6
20260507075507 12 94 17.7 17.7 0.00 0.00 0.00 81 1012.6
20260507075008 11 94 17.7 17.7 0.00 0.00 0.00 83 1012.7
20260507074507 11 94 17.7 17.7 0.00 0.00 0.00 84 1012.7
20260507074008 11 94 17.7 17.7 0.00 0.00 0.00 84 1012.6
20260507073507 11 94 17.7 17.7 0.00 0.00 0.00 85 1012.5
20260507072507 12 94 17.7 17.7 0.00 0.00 0.00 84 1012.5
20260507072007 12 94 17.7 17.7 0.00 0.00 0.00 85 1012.5
20260507071507 12 94 17.7 17.7 0.00 0.00 0.00 85 1012.4
20260507071007 12 94 17.7 17.7 0.00 0.00 0.00 86 1012.3
20260507070507 12 94 17.7 17.7 0.00 0.00 0.00 86 1012.3
20260507070011 12 94 17.7 17.7 0.00 0.00 0.00 86 1012.1
20260507065507 11 94 17.7 17.7 0.00 0.00 0.00 88 1012.1
20260507065008 11 94 17.7 17.7 0.00 0.00 0.00 91 1012.2
20260507064507 11 94 17.7 17.7 0.00 0.00 0.00 92 1012.1
20260507064007 11 94 17.7 17.7 0.00 0.00 0.00 91 1012.0
20260507063008 11 94 17.7 17.7 0.00 0.00 0.00 89 1012.1
20260507062508 11 94 17.7 17.7 0.00 0.00 0.00 89 1011.9
20260507062007 11 94 17.7 17.7 0.00 0.00 0.00 91 1011.8
20260507061508 11 94 17.7 17.7 0.00 0.00 0.00 92 1011.8
20260507061009 11 94 17.7 17.7 0.00 0.00 0.00 93 1011.7
20260507060507 11 94 17.7 17.7 0.00 0.00 0.00 93 1011.9
20260507060008 11 94 17.7 17.7 0.00 0.00 0.00 93 1011.6
20260507055506 11 94 17.7 17.7 0.00 0.00 0.00 94 1011.6
20260507055008 11 94 17.7 17.7 0.00 0.00 0.00 93 1011.6
20260507054508 11 94 17.7 17.7 0.00 0.00 0.00 93 1011.3
20260507054007 11 94 17.7 17.7 0.00 0.00 0.00 93 1011.4
20260507053508 11 94 17.7 17.7 0.00 0.00 0.00 93 1011.3
20260507053007 11 94 17.7 17.7 0.00 0.00 0.00 93 1011.2
20260507052509 10 94 17.7 17.7 0.00 0.00 0.00 93 1011.2
20260507052007 10 94 17.7 17.7 0.00 0.00 0.00 94 1011.1
20260507051507 10 94 17.7 17.7 0.00 0.00 0.00 95 1011.1
20260507051007 10 94 17.7 17.7 0.00 0.00 0.00 95 1011.1
20260507050508 10 94 17.7 17.7 0.00 0.00 0.00 95 1011.0
20260507050008 10 94 17.7 17.7 0.00 0.00 0.00 95 1011.0
20260507045507 10 94 17.7 17.7 0.00 0.00 0.00 96 1011.0
20260507045008 10 94 17.7 17.7 0.00 0.00 0.00 95 1010.9
20260507044507 10 94 17.7 17.7 0.00 0.00 0.00 95 1010.5
20260507044007 10 94 17.7 17.7 0.00 0.00 0.00 95 1010.8
20260507043508 10 94 17.7 17.7 0.00 0.00 0.00 94 1010.7
20260507043007 10 94 17.7 17.7 0.00 0.00 0.00 94 1010.6
20260507042507 10 94 17.7 17.7 0.00 0.00 0.00 95 1010.5
20260507042008 10 94 17.7 17.7 0.00 0.00 0.00 95 1010.5
20260507041007 10 94 17.7 17.7 0.00 0.00 0.00 96 1010.2
20260507040508 10 94 17.7 17.7 0.00 0.00 0.00 96 1010.4
20260507040008 10 94 17.7 17.7 0.00 0.00 0.00 95 1010.2
20260507035507 10 94 17.7 17.7 0.00 0.00 0.00 96 1010.3
20260507035008 10 94 17.7 17.7 0.00 0.00 0.00 96 1010.1
20260507034507 10 94 17.7 17.7 0.00 0.00 0.00 95 1010.2
20260507034008 10 94 17.7 17.7 0.00 0.00 0.00 96 1010.1
20260507033507 10 94 17.7 17.7 0.00 0.00 0.00 95 1010.0
20260507033008 10 94 17.7 17.7 0.00 0.00 0.00 96 1010.1
20260507032508 10 94 17.7 17.7 0.00 0.00 0.00 95 1010.0
20260507032008 10 94 17.7 17.7 0.00 0.00 0.00 95 1010.0
20260507031507 10 94 17.7 17.7 0.00 0.00 0.00 94 1010.0
20260507031006 10 94 17.7 17.7 0.00 0.00 0.00 95 1009.9
20260507030507 10 94 17.7 17.7 0.00 0.00 0.00 95 1010.0
20260507030008 10 94 17.7 17.7 0.00 0.00 0.00 96 1009.9
20260507025507 10 94 17.7 17.7 0.00 0.00 0.00 96 1009.9
20260507025007 10 94 17.7 17.7 0.00 0.00 0.00 97 1010.1
20260507024508 10 94 17.7 17.7 0.00 0.00 0.00 96 1009.9
20260507024007 10 94 17.7 17.7 0.00 0.00 0.00 97 1009.6
20260507023507 10 94 17.7 17.7 0.00 0.00 0.00 98 1010.0
20260507023007 10 94 17.7 17.7 0.00 0.00 0.00 98 1010.0
20260507022507 10 94 17.7 17.7 0.00 0.00 0.00 98 1009.7
20260507022007 10 94 17.7 17.7 0.00 0.00 0.00 98 1009.7
20260507021508 10 94 17.7 17.7 0.00 0.00 0.00 98 1010.1
20260507021007 10 94 17.7 17.7 0.00 0.00 0.00 98 1009.8
20260507020507 10 94 17.7 17.7 0.00 0.00 0.00 97 1009.7
20260507020008 10 94 17.7 17.7 0.00 0.00 0.00 97 1009.9
20260507015507 10 94 17.7 17.7 0.00 0.00 0.00 97 1009.9
20260507015008 10 94 17.7 17.7 0.00 0.00 0.00 97 1010.0
20260507014507 10 94 17.7 17.7 0.00 0.00 0.00 97 1009.9
20260507014008 10 94 17.7 17.7 0.00 0.00 0.00 98 1010.0
20260507013507 10 94 17.7 17.7 0.00 0.00 0.00 98 1009.7
20260507013008 10 94 17.7 17.7 0.00 0.00 0.00 98 1009.7
20260507012507 11 94 17.7 17.7 0.00 0.00 0.00 97 1009.7
20260507012007 11 94 17.7 17.7 0.00 0.00 0.00 97 1009.7
20260507011507 11 94 17.7 17.7 0.00 0.00 0.00 97 1009.5
20260507011008 11 94 17.7 17.7 0.00 0.00 0.00 97 1009.8
20260507010507 11 94 17.7 17.7 0.00 0.00 0.00 98 1009.6
20260507010008 11 94 17.7 17.7 0.00 0.00 0.00 98 1009.3
20260507005507 11 94 17.7 17.7 0.00 0.00 0.00 98 1009.4
20260507005007 11 94 17.7 17.7 0.00 0.00 0.00 98 1009.4
20260507004507 11 94 17.7 17.7 0.00 0.00 0.00 98 1009.4
20260507004007 11 94 17.7 17.7 0.00 0.00 0.00 98 1009.2
20260507003508 11 94 17.7 17.7 0.00 0.00 0.00 98 1009.3
20260507003008 11 94 17.7 17.7 0.00 0.00 0.00 98 1009.3
20260507002508 11 94 17.7 17.7 0.00 0.00 0.00 98 1009.4
20260507002007 11 94 17.7 17.7 0.00 0.00 0.00 97 1009.3
20260507001508 11 94 17.7 17.7 0.00 0.00 0.00 97 1009.2
20260507001007 11 94 17.7 17.7 0.00 0.00 0.00 97 1009.2
20260507000508 11 94 17.7 17.7 0.00 0.00 0.00 97 1009.0
20260507000008 11 94 17.7 17.7 0.00 0.00 0.00 96 1009.1
20260506235508 11 94 17.7 17.7 0.00 0.00 0.00 96 1009.2
20260506235007 11 94 17.7 17.7 0.00 0.00 0.00 95 1009.0
20260506234508 11 94 17.7 17.7 0.00 0.00 0.00 98 1008.9
20260506234008 11 94 17.7 17.7 0.00 0.00 0.00 98 1008.8
20260506233507 11 94 17.7 17.7 0.00 0.00 0.00 98 1008.7
20260506233007 11 94 17.7 17.7 0.00 0.00 0.00 97 1008.6
20260506232007 12 94 17.7 17.7 0.00 0.00 0.00 96 1009.0
20260506231508 11 94 17.7 17.7 0.00 0.00 0.00 96 1009.2
20260506231007 11 94 17.7 17.7 0.00 0.00 0.00 97 1009.0
20260506230508 11 94 17.7 17.7 0.00 0.00 0.00 97 1008.7
20260506230007 11 94 17.7 17.7 0.00 0.00 0.00 97 1008.7
20260506225507 11 94 17.7 17.7 0.00 0.00 0.00 99 1008.7
20260506225008 11 94 17.7 17.7 0.00 0.00 0.00 99 1008.9
20260506224508 11 94 17.7 17.7 0.00 0.00 0.00 99 1008.8
20260506224007 11 94 17.7 17.7 0.00 0.00 0.00 99 1008.8
20260506223508 11 94 17.7 17.7 0.00 0.00 0.00 99 1008.9
20260506223008 11 94 17.7 17.7 0.00 0.00 0.00 99 1009.0
20260506222507 12 94 17.7 17.7 0.00 0.00 0.00 99 1009.0
20260506222007 12 94 17.7 17.7 0.00 0.00 0.00 99 1008.8
20260506221508 12 94 17.7 17.7 0.00 0.00 0.00 98 1008.9
20260506221007 12 94 17.7 17.7 0.00 0.00 0.00 98 1008.7
20260506220008 12 94 17.7 17.7 0.00 0.00 0.00 98 1008.5
20260506215508 12 94 17.7 17.7 0.00 0.00 0.00 98 1008.6
20260506215007 12 94 17.7 17.7 0.00 0.00 0.00 99 1008.5
20260506214507 12 94 17.7 17.7 0.00 0.00 0.00 99 1008.3
20260506214008 11 94 17.7 17.7 0.00 0.00 0.00 99 1008.3
20260506213508 11 94 17.7 17.7 0.00 0.00 0.00 99 1008.4
20260506213007 12 94 17.7 17.7 0.00 0.00 0.00 99 1008.5
20260506212507 12 94 17.7 17.7 0.00 0.00 0.00 99 1008.8
20260506212007 12 94 17.7 17.7 0.00 0.00 0.00 99 1008.5
20260506211509 12 94 17.7 17.7 0.00 0.00 0.00 98 1008.4
20260506211007 12 94 17.7 17.7 0.00 0.00 0.00 98 1008.6
20260506210507 12 94 17.7 17.7 0.00 0.00 0.00 98 1008.4
20260506210007 12 94 17.7 17.7 0.00 0.00 0.00 98 1008.6
20260506205507 12 94 17.7 17.7 0.00 0.00 0.00 98 1008.7
20260506204508 12 94 17.7 17.7 0.00 0.00 0.00 97 1008.7
20260506204007 11 94 17.7 17.7 0.00 0.00 0.00 97 1008.9
20260506203507 12 94 17.7 17.7 0.00 0.00 0.00 97 1009.0
20260506203008 12 94 17.7 17.7 0.00 0.00 0.00 97 1009.0
20260506202507 12 94 17.7 17.7 0.00 0.00 0.00 95 1008.7
20260506202006 13 94 17.7 17.7 0.00 0.00 0.00 92 1009.2
20260506201507 13 94 17.7 17.7 0.00 0.00 0.00 88 1008.8
20260506201006 13 94 17.7 17.7 0.00 0.00 0.00 88 1008.8
20260506200507 13 94 17.7 17.7 0.00 0.00 0.00 86 1008.5
20260506200008 13 94 17.7 17.7 0.00 0.00 0.00 87 1008.1
20260506195507 13 94 17.7 17.7 0.00 0.00 0.00 87 1007.6
20260506195008 13 94 17.7 17.7 0.00 0.00 0.00 87 1007.6
20260506194508 13 94 17.7 17.7 0.00 0.00 0.00 87 1007.7
20260506194007 13 94 17.7 17.7 0.00 0.00 0.00 86 1007.7
20260506193508 13 94 17.7 17.7 0.00 0.00 0.00 86 1007.6
20260506193007 13 94 17.7 17.7 0.00 0.00 0.00 86 1007.8
20260506192507 13 94 17.7 17.7 0.00 0.00 0.00 87 1007.8
20260506192008 13 94 17.7 17.7 0.00 0.00 0.00 86 1007.7
20260506191508 13 94 17.7 17.7 0.00 0.00 0.00 86 1007.4
20260506191008 13 94 17.7 17.7 0.00 0.00 0.00 85 1007.3
20260506190507 13 94 17.7 17.7 0.00 0.00 0.00 85 1007.4
20260506190008 13 94 17.7 17.7 0.00 0.00 0.00 86 1007.5
20260506185008 13 94 17.7 17.7 0.00 0.00 0.00 89 1007.3
20260506184508 13 94 17.7 17.7 0.00 0.00 0.00 88 1007.2
20260506184009 13 94 17.7 17.7 0.00 0.00 0.00 88 1007.2
20260506183507 13 94 17.7 17.7 0.00 0.00 0.00 86 1007.0
20260506183007 13 94 17.7 17.7 0.00 0.00 0.00 84 1006.7
20260506182507 13 94 17.7 17.7 0.00 0.00 0.00 85 1006.7
20260506182007 13 94 17.7 17.7 0.00 0.00 0.00 86 1006.5
20260506181508 13 94 17.7 17.7 0.00 0.00 0.00 85 1006.6
20260506181007 14 94 17.7 17.7 0.00 0.00 0.00 84 1006.7
20260506180508 14 94 17.7 17.7 0.00 0.00 0.00 84 1006.5
20260506180008 14 94 17.7 17.7 0.00 0.00 0.00 84 1006.6
20260506175507 14 94 17.7 17.7 0.00 0.00 0.00 85 1006.5
20260506175007 14 94 17.7 17.7 0.00 0.00 0.00 84 1006.5
20260506174508 14 94 17.7 17.7 0.00 0.00 0.00 84 1006.6
20260506174007 15 94 17.7 17.7 0.00 0.00 0.00 83 1006.7
20260506173507 15 94 17.7 17.7 0.00 0.00 0.00 82 1006.5
20260506173009 15 94 17.7 17.7 0.00 0.00 0.00 81 1006.4
20260506172508 15 94 17.7 17.7 0.00 0.00 0.00 80 1006.6
20260506172007 15 94 17.7 17.7 0.00 0.00 0.00 78 1006.6
20260506171509 15 94 17.7 17.7 0.00 0.00 0.00 76 1006.6
20260506171008 15 94 17.7 17.7 0.00 0.00 0.00 72 1006.7
20260506170507 15 94 17.7 17.7 0.00 0.00 0.00 72 1006.5
20260506170008 15 94 17.7 17.7 0.00 0.00 0.00 77 1006.5
20260506165509 15 94 17.7 17.7 0.00 0.00 0.00 77 1006.5
20260506165008 15 94 17.7 17.7 0.00 0.00 0.00 79 1006.5
20260506164508 15 94 17.7 17.7 0.00 0.00 0.00 79 1006.6
20260506164008 15 94 17.7 17.7 0.00 0.00 0.00 79 1006.8
20260506163507 15 94 17.7 17.7 0.00 0.00 0.00 77 1006.7
20260506163008 16 94 17.7 17.7 0.00 0.00 0.00 65 1006.6
20260506162507 16 94 17.7 17.7 0.00 0.00 0.00 67 1006.6
20260506162008 15 94 17.7 17.7 0.00 0.00 0.00 70 1006.6
20260506161507 14 94 17.7 17.7 0.00 0.00 0.00 76 1007.0
20260506161007 15 94 17.7 17.7 0.00 0.00 0.00 80 1007.2
20260506160508 14 94 17.7 17.7 0.00 0.00 0.00 78 1007.1
20260506160008 15 94 17.7 17.7 0.00 0.00 0.00 81 1007.2
20260506155508 15 94 17.7 17.7 0.00 0.00 0.00 78 1007.0
20260506155008 14 94 17.7 17.7 0.00 0.00 0.00 76 1006.9
20260506154508 15 94 17.7 17.7 0.00 0.00 0.00 76 1006.3
20260506154007 15 94 17.7 17.7 0.00 0.00 0.00 71 1007.1
20260506153507 13 94 17.7 17.7 0.00 0.00 0.00 79 1007.5
20260506153007 14 94 17.7 17.7 0.00 0.00 0.00 79 1007.8
20260506152507 15 94 17.7 17.7 0.00 0.00 0.00 74 1007.9
20260506152008 15 94 17.7 17.7 0.00 0.00 0.00 71 1007.8
20260506151508 15 94 17.7 17.7 0.00 0.00 0.00 69 1007.6
20260506151008 15 94 17.7 17.7 0.00 0.00 0.00 69 1007.7
20260506150508 15 94 17.7 17.7 0.00 0.00 0.00 70 1007.4
20260506150007 16 94 17.7 17.7 0.00 0.00 0.00 66 1007.6
20260506145508 16 94 17.7 17.7 0.00 0.00 0.00 65 1007.5
20260506145007 16 94 17.7 17.7 0.00 0.00 0.00 68 1007.5
20260506144507 16 94 17.7 17.7 0.00 0.00 0.00 71 1007.9
20260506144008 17 94 17.7 17.7 0.00 0.00 0.00 71 1008.0
20260506143508 17 94 17.7 17.7 0.00 0.00 0.00 67 1007.8
20260506143008 18 94 17.7 17.7 0.00 0.00 0.00 58 1007.9
20260506142507 18 94 17.7 17.7 0.00 0.00 0.00 56 1007.9
20260506142007 18 94 17.7 17.7 0.00 0.00 0.00 56 1007.7
20260506141508 18 94 17.7 17.7 0.00 0.00 0.00 55 1007.9
20260506141006 18 94 17.7 17.7 0.00 0.00 0.00 55 1008.0
20260506140508 18 94 17.7 17.7 0.00 0.00 0.00 57 1008.0
20260506140008 19 94 17.7 17.7 0.00 0.00 0.00 55 1008.3
20260506135508 19 94 17.7 17.7 0.00 0.00 0.00 54 1008.3
20260506135009 19 94 17.7 17.7 0.00 0.00 0.00 55 1007.9
20260506134007 19 94 17.7 17.7 0.00 0.00 0.00 53 1008.2
20260506133508 19 94 17.7 17.7 0.00 0.00 0.00 53 1008.3
20260506133007 19 94 17.7 17.7 0.00 0.00 0.00 53 1008.3
20260506132507 19 94 17.7 17.7 0.00 0.00 0.00 54 1008.3
20260506132008 20 94 17.7 17.7 0.00 0.00 0.00 53 1008.3
20260506131508 19 94 17.7 17.7 0.00 0.00 0.00 54 1008.4
20260506130508 19 94 17.7 17.7 0.00 0.00 0.00 54 1008.6
20260506130007 20 94 17.7 17.7 0.00 0.00 0.00 54 1008.7
20260506125508 20 94 17.7 17.7 0.00 0.00 0.00 56 1008.8
20260506125008 19 94 17.7 17.7 0.00 0.00 0.00 54 1008.8
20260506124508 19 94 17.7 17.7 0.00 0.00 0.00 54 1008.8
20260506124008 20 94 17.7 17.7 0.00 0.00 0.00 55 1008.7
20260506123508 19 94 17.7 17.7 0.00 0.00 0.00 55 1008.9
20260506123008 20 94 17.7 17.7 0.00 0.00 0.00 57 1009.0
20260506122507 20 94 17.7 17.7 0.00 0.00 0.00 58 1009.0
20260506122008 19 94 17.7 17.7 0.00 0.00 0.00 60 1008.9
20260506121507 18 94 17.7 17.7 0.00 0.00 0.00 62 1009.0
20260506121007 18 94 17.7 17.7 0.00 0.00 0.00 62 1009.2
20260506120508 18 94 17.7 17.7 0.00 0.00 0.00 63 1009.2
20260506120007 17 94 17.7 17.7 0.00 0.00 0.00 64 1009.0
20260506115507 17 94 17.7 17.7 0.00 0.00 0.00 68 1009.1
20260506115008 17 94 17.7 17.7 0.00 0.00 0.00 65 1009.4
20260506114508 17 94 17.7 17.7 0.00 0.00 0.00 68 1009.2
20260506114007 17 94 17.7 17.7 0.00 0.00 0.00 65 1009.3
20260506113507 17 94 17.7 17.7 0.00 0.00 0.00 66 1009.4
20260506113007 18 94 17.7 17.7 0.00 0.00 0.00 64 1009.3
20260506112507 18 94 17.7 17.7 0.00 0.00 0.00 67 1009.3
20260506112008 17 94 17.7 17.7 0.00 0.00 0.00 66 1009.6
20260506111508 17 94 17.7 17.7 0.00 0.00 0.00 66 1009.5
20260506111008 17 94 17.7 17.7 0.00 0.00 0.00 65 1009.6
20260506110507 17 94 17.7 17.7 0.00 0.00 0.00 66 1009.5
20260506110007 17 94 17.7 17.7 0.00 0.00 0.00 65 1009.6
20260506105507 17 94 17.7 17.7 0.00 0.00 0.00 66 1009.6
20260506105008 16 94 17.7 17.7 0.00 0.00 0.00 67 1009.7
20260506104508 16 94 17.7 17.7 0.00 0.00 0.00 70 1009.6
20260506104008 16 94 17.7 17.7 0.00 0.00 0.00 70 1009.8
20260506103508 16 94 17.7 17.7 0.00 0.00 0.00 70 1009.7
20260506103008 16 94 17.7 17.7 0.00 0.00 0.00 69 1009.6
20260506102508 16 94 17.7 17.7 0.00 0.00 0.00 70 1009.7
20260506102008 16 94 17.7 17.7 0.00 0.00 0.00 69 1009.6
20260506101507 16 94 17.7 17.7 0.00 0.00 0.00 69 1009.6
20260506101008 16 94 17.7 17.7 0.00 0.00 0.00 69 1009.7
20260506100507 16 94 17.7 17.7 0.00 0.00 0.00 70 1009.8
20260506100008 16 94 17.7 17.7 0.00 0.00 0.00 71 1009.5
20260506095507 16 94 17.7 17.7 0.00 0.00 0.00 71 1009.6
20260506095009 16 94 17.7 17.7 0.00 0.00 0.00 71 1009.6
20260506094508 16 94 17.7 17.7 0.00 0.00 0.00 71 1009.4
20260506094008 15 94 17.7 17.7 0.00 0.00 0.00 72 1009.6
20260506093508 15 94 17.7 17.7 0.00 0.00 0.00 71 1009.6
20260506093008 15 94 17.7 17.7 0.00 0.00 0.00 73 1009.4
20260506092008 15 94 17.7 17.7 0.00 0.00 0.00 74 1009.3
20260506091508 15 94 17.7 17.7 0.00 0.00 0.00 75 1009.4
20260506091008 15 94 17.7 17.7 0.00 0.00 0.00 74 1009.6
20260506090508 15 94 17.7 17.7 0.00 0.00 0.00 74 1009.6
20260506090007 15 94 17.7 17.7 0.00 0.00 0.00 74 1009.8
20260506085508 15 94 17.7 17.7 0.00 0.00 0.00 75 1009.5
20260506085008 15 94 17.7 17.7 0.00 0.00 0.00 76 1009.5
20260506084507 15 94 17.7 17.7 0.00 0.00 0.00 76 1009.5
20260506084007 15 94 17.7 17.7 0.00 0.00 0.00 78 1009.5
20260506083507 14 94 17.7 17.7 0.00 0.00 0.00 78 1009.5
20260506083008 14 94 17.7 17.7 0.00 0.00 0.00 79 1009.5
20260506082507 14 94 17.7 17.7 0.00 0.00 0.00 79 1009.4
20260506082007 14 94 17.7 17.7 0.00 0.00 0.00 80 1009.6
20260506081508 14 94 17.7 17.7 0.00 0.00 0.00 80 1009.6
20260506081008 13 94 17.7 17.7 0.00 0.00 0.00 81 1009.4